{"data":{"norad_id":68628,"epoch":"2026-09-19T23:50:16.558944Z","epoch_age_seconds":106989,"freshness":"FRESH","line1":"1 68628U 26074B   26262.99324721  .00007048  00000+0  28087-3 0  9990","line2":"2 68628  60.0218 174.2984 0035122  84.4540 276.0545 15.25694910 25235","mean_motion":15.2569491,"eccentricity":0.0035122,"inclination_deg":60.0218,"raan_deg":174.2984,"arg_perigee_deg":84.454,"mean_anomaly_deg":276.0545,"bstar":0.00028087,"rev_number":2523,"period_min":94.383221085794,"perigee_km":464.58184146155,"apogee_km":512.81724808666,"semimajor_km":6866.8365447741,"source":"CELESTRAK","updated_at":"2026-09-20T09:00:24.364441Z"}}